F3965 Weather Reports


time (UTC)temp
F
wind
direction
speed
knots
gust
knots
rain 1hr
in
rain 24hr
in
rain mn
in
humidity
%
barometer
mb
20260510174530 61 248 0.9 7.0 0.09 0.45 0.32 50 1008.8
20260510173044 62 305 4.3 8.7 0.07 0.43 0.29 51 1009.1
20260510171535 64 200 1.7 6.1 0.00 0.37 0.23 50 1008.5
20260510170034 65 228 1.7 6.1 0.00 0.36 0.22 47 1008.6
20260510164534 64 255 0.9 3.5 0.00 0.36 0.22 46 1008.5
20260510163041 65 255 0.0 3.5 0.00 0.36 0.22 46 1008.4
20260510161536 65 0 0.0 2.6 0.00 0.36 0.22 43 1008.0
20260510160034 64 0 0.9 3.5 0.00 0.36 0.22 45 1008.1
20260510154534 64 0 0.0 0.0 0.00 0.36 0.22 46 1008.2
20260510153034 63 0 0.0 0.0 0.00 0.36 0.22 44 1008.4
20260510151533 64 0 0.0 1.7 0.00 0.36 0.22 44 1008.7
20260510150040 63 265 0.9 4.3 0.00 0.36 0.22 44 1008.8
20260510144541 62 215 2.6 5.2 0.00 0.36 0.22 44 1009.0
20260510143037 61 252 1.7 6.1 0.00 0.36 0.22 43 1009.5
20260510141534 59 266 0.9 5.2 0.00 0.36 0.22 46 1009.9
20260510140034 58 176 3.5 9.6 0.00 0.36 0.22 49 1010.1
20260510134530 57 213 4.3 8.7 0.02 0.36 0.22 51 1009.9
20260510133030 56 193 2.6 8.7 0.22 0.36 0.22 52 1010.0
20260510131534 56 229 1.7 8.7 0.22 0.36 0.22 52 1011.0
20260510130034 56 276 6.1 10.4 0.22 0.35 0.22 52 1011.4
20260510124535 56 107 10.4 40.0 0.20 0.33 0.20 51 1010.8
20260510123032 69 57 2.6 6.1 0.00 0.13 0.00 32 1008.7
20260510121530 69 93 5.2 10.4 0.00 0.13 0.00 33 1008.5
20260510120036 69 81 5.2 8.7 0.00 0.13 0.00 34 1008.7
20260510114543 69 22 4.3 8.7 0.00 0.13 0.00 31 1008.7
20260510113031 70 5 3.5 9.6 0.00 0.13 0.00 31 1008.7
20260510111534 70 304 2.6 12.2 0.00 0.13 0.00 32 1008.7
20260510110030 70 303 0.0 9.6 0.00 0.13 0.00 30 1008.9
20260510104531 70 277 4.3 13.9 0.00 0.13 0.00 31 1008.9
20260510103032 69 346 2.6 11.3 0.00 0.13 0.00 35 1009.1
20260510101534 69 340 5.2 16.5 0.00 0.13 0.00 34 1009.3
20260510100051 69 323 3.5 12.2 0.00 0.13 0.00 34 1009.2
20260510094546 68 65 4.3 13.0 0.00 0.13 0.00 35 1009.4
20260510093032 67 328 3.5 10.4 0.00 0.13 0.00 37 1009.6
20260510091532 67 336 5.2 15.6 0.00 0.13 0.00 37 1009.9
20260510090041 65 338 7.8 19.1 0.00 0.13 0.00 38 1010.0
20260510084532 64 0 3.5 13.9 0.00 0.13 0.00 41 1009.8
20260510083031 63 300 0.9 10.4 0.00 0.13 0.00 43 1010.0
20260510081543 63 28 5.2 8.7 0.00 0.13 0.00 43 1010.0
20260510080032 63 349 4.3 10.4 0.00 0.13 0.00 43 1009.8
20260510074530 63 15 2.6 10.4 0.00 0.13 0.00 44 1009.8
20260510073033 63 329 5.2 12.2 0.00 0.13 0.00 43 1009.7
20260510071539 62 286 3.5 13.0 0.00 0.13 0.00 44 1009.6
20260510070038 61 311 2.6 7.8 0.00 0.13 0.00 44 1009.3
20260510064532 61 331 2.6 10.4 0.00 0.13 0.00 44 1009.1
20260510063036 60 340 1.7 7.8 0.00 0.13 0.00 44 1009.1
20260510061530 60 281 1.7 7.8 0.00 0.13 0.00 44 1009.1
20260510060033 59 0 0.0 0.9 0.00 0.13 0.00 45 1009.0
20260510054530 58 0 0.0 3.5 0.00 0.13 0.00 46 1008.8
20260510053030 57 0 0.0 1.7 0.00 0.13 0.00 51 1008.7
20260510051532 57 0 0.0 2.6 0.00 0.13 0.00 51 1008.5
20260510050035 58 0 0.0 0.0 0.00 0.13 0.00 49 1008.3
20260510044535 58 0 0.0 0.0 0.00 0.13 0.00 51 1008.4
20260510043034 58 0 0.0 0.0 0.00 0.13 0.00 50 1008.2
20260510041530 59 0 0.0 2.6 0.00 0.13 0.00 49 1008.3
20260510040031 59 0 0.0 2.6 0.00 0.13 0.00 48 1008.2
20260510034540 58 214 0.0 3.5 0.00 0.13 0.00 50 1008.2
20260510033029 59 0 0.0 3.5 0.00 0.13 0.00 50 1008.0
20260510031531 61 0 0.0 4.3 0.00 0.13 0.00 46 1008.0
20260510030032 60 215 2.6 6.1 0.00 0.13 0.00 44 1007.9
20260510024534 59 261 0.0 5.2 0.00 0.13 0.00 46 1008.2
20260510023035 58 0 0.0 1.7 0.00 0.13 0.00 48 1008.3
20260510021533 57 0 0.0 0.0 0.00 0.13 0.00 51 1008.2
20260510020030 57 0 0.0 1.7 0.00 0.13 0.00 50 1008.2
20260510014536 58 0 0.9 3.5 0.00 0.13 0.00 49 1008.1
20260510013031 58 0 0.0 3.5 0.00 0.13 0.00 48 1008.2
20260510011541 57 85 0.0 3.5 0.00 0.13 0.00 52 1008.3
20260510010031 57 0 0.0 1.7 0.00 0.13 0.00 52 1008.3
20260510004538 57 0 0.0 2.6 0.00 0.13 0.00 52 1008.5
20260510003037 58 0 0.0 2.6 0.00 0.13 0.00 51 1008.5
20260510001532 58 0 0.0 3.5 0.00 0.13 0.00 51 1008.6
20260510000055 58 177 0.9 3.5 0.00 0.13 0.00 51 1008.7
20260509234547 58 0 0.9 2.6 0.00 0.13 0.00 51 1008.7
20260509233034 58 180 0.9 2.6 0.00 0.13 0.00 51 1008.7
20260509231534 58 0 0.0 3.5 0.00 0.13 0.00 52 1008.8
20260509230037 58 0 1.7 3.5 0.00 0.13 0.00 52 1008.6
20260509224532 58 0 0.0 2.6 0.00 0.13 0.00 51 1008.7
20260509223034 59 229 0.9 4.3 0.00 0.13 0.00 51 1008.6
20260509221531 59 228 1.7 4.3 0.00 0.13 0.00 51 1008.8
20260509220030 59 121 0.0 1.7 0.00 0.13 0.00 50 1008.7
20260509214536 59 121 0.0 1.7 0.00 0.13 0.13 50 1008.6
20260509213039 60 120 0.0 3.5 0.00 0.13 0.13 50 1008.4
20260509211537 59 97 2.6 6.1 0.00 0.13 0.13 51 1008.2
20260509210041 59 0 0.9 3.5 0.00 0.13 0.13 53 1008.2
20260509204538 58 237 0.0 3.5 0.00 0.13 0.13 54 1008.3
20260509203036 58 266 0.9 2.6 0.00 0.13 0.13 55 1008.2
20260509201539 58 0 0.0 2.6 0.00 0.13 0.13 54 1008.1
20260509200038 58 0 0.0 0.0 0.00 0.13 0.13 54 1007.8
20260509194537 58 0 0.0 0.0 0.00 0.13 0.13 54 1007.7
20260509193032 58 0 0.0 2.6 0.00 0.13 0.13 54 1007.6
20260509191533 58 0 0.0 1.7 0.00 0.13 0.13 53 1007.6
20260509190036 59 238 0.0 2.6 0.00 0.13 0.13 52 1007.6
20260509184552 59 0 0.0 0.0 0.00 0.13 0.13 52 1007.6
20260509183036 60 0 0.0 3.5 0.02 0.13 0.13 51 1007.5
20260509181539 60 0 0.0 1.7 0.11 0.13 0.13 51 1007.7
20260509180031 59 207 2.6 7.0 0.13 0.13 0.13 51 1007.8